Weather in Yagelny

Russia / Yamalo-Nenets Autonomous Okrug     64°40′47″N   72°21′58″E
temp.,
°C
wind,
m/s
gust,
m/s
humid.,
%
clouds,
%
prec.,
mm/h
press.,
hPa
HPBL,
m
27 february, sat
sat2723:00−23wnw239992 0.1 102421
02:00−24wnw339995 0.1 102324
05:00−24wnw349895 0.1 102476
08:00−25wnw239898 0.1 102359
11:00−23w339494 0.1 1024209
14:00−21wnw239399 0.1 1024230
17:00−23wsw229798 0.1 102520
20:00−26sw229962 0.0 102420
28 february, sun
sun2823:00−26ssw239841 0.0 102519
02:00−26sw34940 0.0 102419
05:00−27ssw33990 0.0 102519
08:00−28ssw34941 0.0 102520
11:00−23ssw46911 0.0 1024220
14:00−20ssw46890 0.0 1025290
17:00−24s45944 0.0 102434
20:00−26s45940 0.0 102436
1 march, mon
mon123:00−27s56930 0.0 102451
02:00−28ssw55930 0.0 102441
05:00−29s55933 0.0 102338
08:00−28s569433 0.0 102261
11:00−23s689226 0.0 1022244
14:00−21ssw699052 0.0 1020311
17:00−23s689261 0.0 1019110
20:00−26s7109119 0.0 1018124
2 march, tue
tue223:00−26s712899 0.0 1017152
02:00−27s712890 0.0 1016173
05:00−27s8138825 0.0 1015181
08:00−26s8158989 0.0 1014221
11:00−22s10158674 0.0 1014323
14:00−19s10148281 0.0 1013386
17:00−21s9158585 0.0 1012272
20:00−23s9158894 0.0 1012240
3 march, wed
wed323:00−23s9159396 0.0 1012245
02:00−23s8149594 0.0 1011236
05:00−23s9149596 0.0 1011236
08:00−23s91395100 0.0 1011252
11:00−20s101593100 0.0 1011378
14:00−17s101591100 0.0 1010424
17:00−18sse91592100 0.0 1009338
20:00−20s91694100 0.0 1009328